Whiting Fld NAS, FL

5:14 AM CST on November 21, 2017 (GMT -0600)
Whiting Field Naval Air Station (North)

Weather History for KNSE - March, 2013

Change the Weather History Date:

Friday, March 29, 2013

  Actual Average Record
Temperature  
Mean Temperature 55 °F -  
Max Temperature 73 °F 72 °F 86 °F (2007)
Min Temperature 37 °F 51 °F 37 °F (2013)
Degree Days  
Heating Degree Days 10    
Growing Degree Days 5 (Base 50)    
Moisture  
Dew Point 38 °F    
Average Humidity 59    
Maximum Humidity 86    
Minimum Humidity 19    
Precipitation  
Precipitation 0.00 in - - ()
Sea Level Pressure  
Sea Level Pressure 30.24 in    
Wind  
Wind Speed 3 mph (South)    
Max Wind Speed 17 mph    
Max Gust Speed 23 mph    
Visibility 10 miles    
Events Rain    
Averages and records for this station are not official NWS values.
T = Trace of Precipitation, MM = Missing Value Source: NWS Daily Summary

Daily Weather History Graph

Daily Weather History Graph

Search for Another Location

Airport or City:

Trip Planner

Search our weather history database for the weather conditions in past years. The results will help you decide how hot, cold, wet, or windy it might be!

Date:

Astronomy

Mar. 29, 2013 Rise Set
Actual Time 6:40 AM CDT 7:05 PM CDT
Civil Twilight 6:16 AM CDT 7:29 PM CDT
Nautical Twilight 5:47 AM CDT 7:57 PM CDT
Astronomical Twilight 5:19 AM CDT 8:26 PM CDT
Moon 9:51 PM CDT (3/29) 8:00 AM CDT (3/29)
Length of Visible Light 13h 13m
Length of Day
12h 24m
Waning Gibbous, 93% of the Moon is Illuminated
Mar 29
Waning Gibbous
Apr 2
Last Quarter
Apr 10
New
Apr 18
First Quarter
Apr 25
Full

Hourly Weather History & Observations

Time (CDT) Temp. Dew Point Humidity Pressure Visibility Wind Dir Wind Speed Gust Speed Precip Events Conditions
12:56 AM 41.0 °F 35.1 °F 79% 30.28 in 10.0 mi Calm Calm - N/A   Clear
1:56 AM 41.0 °F 36.0 °F 82% 30.27 in 10.0 mi Calm Calm - 0.00 in   Clear
2:56 AM 37.9 °F 34.0 °F 86% 30.26 in 10.0 mi Calm Calm - 0.00 in Rain Light Rain
3:56 AM 39.0 °F 35.1 °F 86% 30.25 in 10.0 mi Calm Calm - 0.00 in   Clear
4:56 AM 39.0 °F 35.1 °F 86% 30.25 in 10.0 mi Calm Calm - 0.00 in   Clear
5:56 AM 39.0 °F 35.1 °F 86% 30.27 in 9.0 mi Calm Calm - N/A   Clear
6:56 AM 37.9 °F 34.0 °F 86% 30.28 in 8.0 mi Calm Calm - N/A   Partly Cloudy
7:56 AM 46.0 °F 39.9 °F 79% 30.30 in 10.0 mi Calm Calm - N/A   Partly Cloudy
8:56 AM 57.0 °F 39.9 °F 53% 30.30 in 8.0 mi NE 3.5 mph - N/A   Partly Cloudy
9:56 AM 64.9 °F 35.1 °F 33% 30.31 in 9.0 mi Calm Calm - N/A   Partly Cloudy
10:56 AM 69.1 °F 32.0 °F 25% 30.30 in 10.0 mi Variable 5.8 mph - N/A   Partly Cloudy
11:56 AM 72.0 °F 30.9 °F 22% 30.27 in 10.0 mi South 5.8 mph 17.3 mph N/A   Partly Cloudy
12:56 PM 73.0 °F 28.9 °F 20% 30.25 in 10.0 mi SSE 11.5 mph 17.3 mph N/A   Partly Cloudy
1:56 PM 73.0 °F 28.9 °F 20% 30.23 in 10.0 mi South 15.0 mph 20.7 mph N/A   Partly Cloudy
2:56 PM 73.0 °F 33.1 °F 23% 30.21 in 10.0 mi SSW 11.5 mph 20.7 mph N/A   Partly Cloudy
3:56 PM 71.1 °F 27.0 °F 19% 30.21 in 10.0 mi South 17.3 mph 23.0 mph N/A   Scattered Clouds
4:56 PM 69.1 °F 34.0 °F 27% 30.19 in 10.0 mi SSW 16.1 mph - N/A   Scattered Clouds
5:56 PM 66.0 °F 44.1 °F 45% 30.20 in 10.0 mi SSW 15.0 mph 19.6 mph N/A   Scattered Clouds
6:56 PM 62.1 °F 46.9 °F 58% 30.20 in 10.0 mi SSW 10.4 mph - N/A   Scattered Clouds
7:56 PM 57.9 °F 48.0 °F 70% 30.21 in 10.0 mi SSW 6.9 mph - N/A   Scattered Clouds
8:56 PM 55.0 °F 48.0 °F 77% 30.21 in 10.0 mi South 4.6 mph - N/A   Scattered Clouds
9:56 PM 53.1 °F 48.0 °F 83% 30.22 in 9.0 mi Calm Calm - N/A   Partly Cloudy
10:56 PM 53.1 °F 48.0 °F 83% 30.21 in 9.0 mi Calm Calm - N/A   Partly Cloudy
11:56 PM 55.0 °F 50.0 °F 83% 30.20 in 8.0 mi Calm Calm - N/A   Clear